User: anonymous   Login
Location: Minneapolis
(44.9800°N, 93.2640°W)
Time: 08:31:32
(UTC-05:00)
Language:

Iridium 96 - Orbit

View from above orbital plane
View from above orbital plane
View from above satellite
View from above satellite

Ground track
Ground track

The orbit data is extracted from the following two-line orbital elements,

1 27376U 02005E   16208.56350374  .00000162  00000-0  50846-4 0  9998
2 27376  86.3992  95.2542 0003403  97.6791 262.4791 14.34223140769445
Epoch (UTC): 26 July 2016 13:31:26
Eccentricity: 0.0003403
inclination: 86.3992°
perigee height: 775 km
apogee height: 780 km
right ascension of ascending node: 95.2542°
argument of perigee: 97.6791°
revolutions per day: 14.34223140
mean anomaly at epoch: 262.4791°
orbit number at epoch: 76944

The dashed part of the orbit path shows where the satellite is in the earth's shadow,  

DLR